[[{"header":{"parameterUnit":"m.s-1","parameterCategory":1,"la1":30.2991,"la2":30.254,"lo1":-89.0895,"lo2":-89.0444,"dy":0.0017,"dx":0.0017,"nx":28,"ny":28,"refTime":"2023-08-14T21:00:00:Z","depth":0,"parameterNumber":2,"parameterNumberName":"U-component_of_WINDS"},"data":[0,0,0,0,0,0,0,0,0,0,0,0,0,0,0,0,0,0,0,0,0,0,0,0,0,0,0,0,0,0,0,0,0,0,0,0,0,0,0,0,0,0,0,0,0,0,0,0,0,0,0,0,0,0,0,0,0,0,0.4626,0.4627,0,0.472,0.4721,0.4722,0.475,0.475,0.4749,0.4749,0.485,0.4853,0.4856,0,0,0,0,0,0,0,0,0,0,0,0,0,0.4475,0.4478,0.4626,0.4627,0.4628,0.472,0.4721,0.4723,0.475,0.475,0.4749,0.4748,0.4849,0.4853,0.4857,0,0,0,0,0,0,0,0,0,0,0,0,0,0.4552,0.4479,0.4626,0.4653,0.4656,0.472,0.4721,0.4723,0.475,0.475,0.4749,0.4748,0.4848,0.4852,0.4857,0.4902,0,0,0.4872,0.4874,0,0,0,0,0,0,0,0,0.4548,0.4558,0.4648,0.4651,0.4655,0.4722,0.4706,0.4783,0.475,0.4715,0.4749,0.4748,0.4809,0.4817,0.4836,0.4907,0.4911,0.4872,0.4875,0.4877,0.4878,0,0,0,0,0,0,0,0.4543,0.4554,0.4663,0.4649,0.4654,0.4662,0.4672,0.472,0.4765,0.4718,0.472,0.4731,0.481,0.4831,0.4839,0.4912,0.4872,0.4876,0.4879,0.4881,0.5027,0.5028,0,0,0,0,0,0,0.4532,0.4549,0.466,0.4666,0.4598,0.4666,0.4677,0.4702,0.4764,0.4773,0.4731,0.4731,0.4824,0.4833,0.4842,0.49,0.4877,0.4881,0.4884,0.5026,0.5027,0.5028,0,0,0,0,0,0,0.4529,0.4542,0.4657,0.4608,0.4624,0.4669,0.4697,0.4704,0.4725,0.4774,0.4783,0.4744,0.4823,0.4836,0.4887,0.4904,0.4884,0.4888,0.5025,0.5026,0.5028,0.5014,0,0,0,0,0,0,0.4524,0.454,0.4556,0.4609,0.4626,0.4698,0.4698,0.4706,0.4732,0.4734,0.4789,0.4797,0.4824,0.488,0.4892,0.491,0.4892,0.5023,0.5025,0.5027,0.5014,0.5015,0.5017,0,0,0,0,0,0.4519,0.4549,0.4557,0.457,0.4647,0.4698,0.4709,0.4737,0.4733,0.4751,0.4783,0.4795,0.49,0.4885,0.4898,0.4918,0.5022,0.5025,0.5027,0.5013,0.5015,0.5017,0,0,0,0,0,0,0.4499,0.4557,0.4565,0.4614,0.4651,0.4703,0.4726,0.4738,0.4779,0.4778,0.4814,0.4826,0.4875,0.4902,0.4884,0.4966,0.4962,0.4967,0.4946,0.4949,0.495,0.4943,0.4896,0,0,0,0,0,0.45,0.4535,0.4585,0.4623,0.4641,0.468,0.4704,0.4722,0.4763,0.4779,0.4815,0.4856,0.4898,0.4925,0.4966,0.5018,0.5031,0.5039,0.504,0.5041,0.5045,0.5076,0.5081,0.5036,0.5036,0.5036,0,0,0.4503,0.4539,0.4559,0.4619,0.465,0.4688,0.4693,0.4732,0.4762,0.4786,0.4836,0.4864,0.4912,0.4964,0.4989,0.4988,0.5061,0.5044,0.5045,0.5048,0.5079,0.5083,0.5087,0.5037,0.5037,0.5037,0,0,0.4527,0.4557,0.4592,0.4624,0.467,0.4696,0.4705,0.4756,0.4775,0.4826,0.4845,0.4882,0.4953,0.4986,0.5013,0.5052,0.5065,0.5065,0.5073,0.5103,0.5106,0.511,0.5125,0.513,0.5069,0.5069,0.5069,0,0.4525,0.4581,0.461,0.4648,0.4675,0.4698,0.4735,0.4765,0.4823,0.4842,0.484,0.4931,0.4965,0.5025,0.5035,0.5055,0.5068,0.5058,0.5103,0.5107,0.5111,0.5125,0.5131,0.5068,0.5068,0.5068,0.5068,0,0.4577,0.4616,0.4639,0.4694,0.4723,0.4761,0.4797,0.4824,0.4841,0.4868,0.4921,0.4962,0.5013,0.5029,0.5046,0.5093,0.5091,0.5096,0.5092,0.5114,0.5128,0.5134,0.5068,0.5068,0.5068,0.5068,0,0,0.459,0.4661,0.4669,0.4695,0.4749,0.478,0.482,0.4869,0.4892,0.4932,0.4968,0.5028,0.5033,0.5063,0.5085,0.5111,0.5141,0.5113,0.5114,0.5117,0.5196,0.5192,0.5198,0.515,0.5151,0.5152,0.5192,0,0.4622,0.4692,0.472,0.4778,0.4816,0.4839,0.4874,0.4912,0.4939,0.4976,0.5007,0.5049,0.5052,0.507,0.5097,0.5131,0.5157,0.5129,0.5185,0.5187,0.5172,0.5206,0.5202,0.5238,0.5198,0.5199,0.52,0,0.4668,0.4707,0.4769,0.4819,0.4836,0.4867,0.4914,0.4949,0.4994,0.5012,0.5046,0.5066,0.5111,0.5105,0.5169,0.5149,0.5174,0.5194,0.5196,0.5203,0.5194,0.5214,0.525,0.5255,0.5209,0.5208,0.5208,0,0.4672,0.4741,0.4787,0.4808,0.4868,0.489,0.4916,0.496,0.4988,0.503,0.5049,0.5097,0.5123,0.516,0.5193,0.5185,0.5255,0.5251,0.5272,0.5272,0.5286,0.5284,0.5327,0.5301,0.5301,0.5301,0.5301,0,0.4705,0.4742,0.479,0.4818,0.4861,0.4894,0.4936,0.4964,0.5003,0.5039,0.5063,0.5096,0.5138,0.5178,0.5204,0.5254,0.5266,0.5283,0.5289,0.528,0.5278,0.5297,0.5296,0.5303,0.5302,0.5302,0.5302,0,0.4717,0.475,0.4802,0.4855,0.4869,0.4899,0.4945,0.4974,0.5003,0.5048,0.506,0.5106,0.5153,0.519,0.5253,0.5271,0.5324,0.5331,0.5308,0.5311,0.5331,0.5329,0.5387,0.5397,0.5365,0.5365,0.5365,0,0.4735,0.4764,0.482,0.4845,0.4871,0.4911,0.4939,0.4974,0.5003,0.5057,0.508,0.5129,0.517,0.5246,0.5286,0.5334,0.5343,0.536,0.5351,0.5341,0.5344,0.5342,0.5346,0.5362,0.5362,0.5362,0.5362,0,0.4765,0.478,0.482,0.4865,0.4898,0.4936,0.4975,0.4994,0.5036,0.5068,0.5116,0.5148,0.5212,0.5261,0.5314,0.5344,0.5361,0.5365,0.5372,0.5364,0.5349,0.5358,0.5312,0.5363,0.5363,0.5363,0.5363,0.5363,0.4781,0.4808,0.4852,0.4896,0.4928,0.4964,0.4995,0.5027,0.5067,0.5121,0.5139,0.519,0.5236,0.5308,0.5338,0.538,0.538,0.5391,0.5394,0.5396,0.5396,0.5343,0.5389,0.5389,0.5389,0.5389,0.5389,0,0.4813,0.4842,0.4882,0.4935,0.4969,0.4981,0.5025,0.5054,0.5097,0.5138,0.5178,0.5235,0.5283,0.5326,0.5377,0.5402,0.5411,0.5414,0.5413,0.542,0.5392,0.538,0.5406,0.5406,0.5406,0.5406,0.5406,0.5406,0.4833,0.488,0.4901,0.4965,0.4995,0.5043,0.5067,0.5101,0.5134,0.5196,0.5235,0.5263,0.5306,0.536,0.5406,0.5418,0.5436,0.5437,0.5451,0.5424,0.5422,0.542,0.5409,0.544,0.544,0.5476,0.5476,0.5476]},{"header":{"parameterUnit":"m.s-1","parameterCategory":1,"la1":30.2991,"la2":30.254,"lo1":-89.0895,"lo2":-89.0444,"dy":0.0017,"dx":0.0017,"nx":28,"ny":28,"refTime":"2023-08-14T21:00:00:Z","depth":0,"parameterNumber":3,"parameterNumberName":"V-component_of_WINDS"},"data":[0,0,0,0,0,0,0,0,0,0,0,0,0,0,0,0,0,0,0,0,0,0,0,0,0,0,0,0,0,0,0,0,0,0,0,0,0,0,0,0,0,0,0,0,0,0,0,0,0,0,0,0,0,0,0,0,0,0,2.8958,2.8959,0,2.9025,2.9025,2.9026,2.9051,2.9051,2.9051,2.9051,2.9115,2.9116,2.9118,0,0,0,0,0,0,0,0,0,0,0,0,0,2.8847,2.8849,2.8958,2.8959,2.896,2.9025,2.9025,2.9026,2.9051,2.9051,2.9051,2.9051,2.9114,2.9116,2.9119,0,0,0,0,0,0,0,0,0,0,0,0,0,2.8902,2.8849,2.8958,2.898,2.8983,2.9024,2.9025,2.9027,2.9051,2.9051,2.9051,2.905,2.9113,2.9116,2.9119,2.9142,0,0,2.9127,2.9129,0,0,0,0,0,0,0,0,2.8899,2.8906,2.8976,2.8979,2.8982,2.9029,2.901,2.9065,2.9051,2.9025,2.9051,2.905,2.9086,2.9091,2.9104,2.9145,2.9148,2.9128,2.9129,2.9131,2.9131,0,0,0,0,0,0,0,2.8895,2.8904,2.8985,2.8977,2.8981,2.8985,2.8992,2.902,2.9056,2.9027,2.9029,2.9037,2.9088,2.9101,2.9106,2.9149,2.9128,2.913,2.9132,2.9133,2.9207,2.9207,0,0,0,0,0,0,2.8888,2.89,2.8982,2.8987,2.8939,2.8987,2.8995,2.9014,2.9056,2.9062,2.9037,2.9038,2.9097,2.9103,2.9108,2.9136,2.9131,2.9133,2.9135,2.9207,2.9207,2.9207,0,0,0,0,0,0,2.8886,2.8896,2.898,2.8944,2.8955,2.8989,2.901,2.9016,2.903,2.9064,2.907,2.9045,2.9097,2.9104,2.9133,2.9138,2.9135,2.9137,2.9206,2.9207,2.9207,2.9192,0,0,0,0,0,0,2.8883,2.8895,2.8906,2.8944,2.8957,2.9005,2.9011,2.9017,2.9035,2.9037,2.9073,2.9078,2.9097,2.9128,2.9135,2.9142,2.9139,2.9206,2.9206,2.9207,2.9192,2.9192,2.9191,0,0,0,0,0,2.8879,2.8899,2.8906,2.8916,2.8972,2.9006,2.9013,2.9035,2.9035,2.9045,2.9066,2.9077,2.9136,2.9131,2.9139,2.9147,2.9206,2.9206,2.9207,2.9192,2.9192,2.9191,0,0,0,0,0,0,2.886,2.8905,2.8913,2.8947,2.8972,2.901,2.9024,2.9034,2.906,2.906,2.9085,2.9093,2.9118,2.9135,2.9129,2.9169,2.9171,2.9174,2.9157,2.9157,2.9157,2.9152,2.9142,0,0,0,0,0,2.886,2.8886,2.8922,2.8948,2.8961,2.8989,2.9005,2.902,2.9047,2.9057,2.9081,2.9105,2.9128,2.9144,2.9168,2.9194,2.92,2.9203,2.9202,2.9202,2.9203,2.9215,2.9216,2.9209,2.9209,2.9209,0,0,2.8861,2.8888,2.8902,2.8945,2.8967,2.899,2.8999,2.9024,2.9041,2.9061,2.9089,2.9106,2.9134,2.9161,2.9174,2.9176,2.9206,2.9203,2.9202,2.9204,2.9216,2.9216,2.9217,2.9209,2.9209,2.9209,0,0,2.8872,2.8897,2.8919,2.894,2.8972,2.899,2.8995,2.9031,2.9043,2.9071,2.9086,2.9105,2.9146,2.9165,2.9179,2.9193,2.9203,2.92,2.9198,2.9209,2.921,2.921,2.9213,2.9214,2.9201,2.9201,2.9201,0,2.8868,2.8906,2.8929,2.8953,2.897,2.8989,2.901,2.9028,2.9066,2.9076,2.9078,2.9127,2.9148,2.9177,2.918,2.9192,2.9197,2.9196,2.9208,2.9209,2.921,2.9212,2.9213,2.9201,2.9201,2.9201,2.9201,0,2.8898,2.8923,2.8937,2.8973,2.8991,2.9013,2.9037,2.9053,2.9064,2.9081,2.9108,2.9132,2.916,2.9168,2.918,2.9198,2.9198,2.9203,2.9206,2.9209,2.9212,2.9213,2.92,2.92,2.92,2.92,0,0,2.8903,2.8948,2.8953,2.8967,2.9002,2.9021,2.9042,2.9069,2.9081,2.9105,2.9121,2.9153,2.9158,2.9174,2.9188,2.9198,2.9203,2.9202,2.9203,2.92,2.9221,2.9216,2.9217,2.921,2.921,2.921,2.9218,0,2.8918,2.8959,2.8978,2.9009,2.903,2.9046,2.9064,2.9085,2.9101,2.9119,2.9136,2.9158,2.9163,2.9173,2.9183,2.9201,2.9208,2.92,2.9223,2.9224,2.9215,2.9219,2.9215,2.9221,2.9219,2.922,2.922,0,2.8942,2.8965,2.8998,2.9026,2.9036,2.9052,2.9077,2.9095,2.9118,2.9128,2.9145,2.9158,2.9177,2.9178,2.9204,2.9198,2.9208,2.9218,2.9218,2.9221,2.9222,2.922,2.9224,2.9224,2.9222,2.9222,2.9222,0,2.8939,2.8979,2.9003,2.9015,2.905,2.906,2.9074,2.9097,2.9111,2.9131,2.914,2.9162,2.9174,2.919,2.9207,2.9207,2.923,2.9233,2.9237,2.9237,2.9242,2.9241,2.9246,2.9249,2.9249,2.9249,2.9249,0,2.8954,2.8973,2.9002,2.9016,2.9037,2.9057,2.9076,2.9091,2.9111,2.9127,2.9141,2.9155,2.9178,2.9194,2.9207,2.9225,2.923,2.9237,2.9241,2.9236,2.9235,2.9243,2.9242,2.925,2.925,2.925,2.925,0,2.8955,2.8976,2.9002,2.9031,2.9039,2.9052,2.9076,2.9089,2.9104,2.9124,2.913,2.9153,2.9172,2.919,2.9217,2.9225,2.9242,2.9247,2.9235,2.9236,2.9239,2.9238,2.9248,2.925,2.9253,2.9253,2.9253,0,2.8963,2.8977,2.9007,2.9019,2.9033,2.9053,2.9066,2.9085,2.9098,2.9124,2.9133,2.9153,2.9171,2.92,2.9218,2.9237,2.9242,2.9244,2.9245,2.9238,2.924,2.9238,2.9239,2.9243,2.9243,2.9243,2.9243,0,2.8973,2.8982,2.9001,2.9023,2.9039,2.9057,2.9076,2.9084,2.9106,2.912,2.914,2.9153,2.9179,2.9198,2.9218,2.9231,2.924,2.9242,2.9244,2.9239,2.9231,2.9234,2.9232,2.9242,2.9242,2.9242,2.9243,2.9243,2.8977,2.8989,2.9011,2.9031,2.9047,2.9063,2.9076,2.9092,2.9109,2.9132,2.9141,2.9161,2.918,2.9208,2.922,2.9234,2.9236,2.9239,2.924,2.924,2.9238,2.9229,2.9238,2.9238,2.9238,2.9238,2.9238,0,2.8986,2.9001,2.9019,2.9044,2.9059,2.9066,2.9086,2.9097,2.9114,2.9132,2.9148,2.9169,2.9186,2.9205,2.9223,2.923,2.9234,2.9234,2.9233,2.9235,2.9236,2.9232,2.923,2.923,2.923,2.923,2.923,2.923,2.8993,2.9013,2.9024,2.905,2.9064,2.9084,2.9094,2.9108,2.9121,2.9144,2.9159,2.9171,2.9187,2.9206,2.9222,2.9226,2.9232,2.923,2.9235,2.9235,2.9236,2.9236,2.9233,2.9231,2.9231,2.9234,2.9234,2.9234]}]]